#timestamp,LO_Frequency,Hit,StdDev 
1568800815.6,286046998.3,N
1568800835.4,286046995.0,N
1568800855.3,286046995.7,N
1568800875.1,286046992.3,Y
1568800895.9,286046991.5,P
1568800915.7,286046989.0,N
1568800935.5,286046991.1,N
1568800955.4,286046991.3,N
1568800975.2,286046991.3,N
1568800995.0,286046988.7,Y
1568800995.9,286046988.7,P
1568801015.8,286046999.7,N
1568801035.6,286046997.2,N
1568801055.5,286046995.1,N
1568801075.3,286046997.1,N
1568801095.1,286046995.6,N
1568801115.9,286046995.8,N
1568801135.7,286046996.2,N
1568801155.5,286046995.5,N
1568801175.4,286046995.2,N
1568801195.2,286046997.4,N
1568801215.1,286046995.1,N
1568801216.0,286046995.1,N
1568801235.8,286046994.9,N
1568801255.6,286046996.9,N
1568801275.5,286047000.3,N
1568801295.3,286047003.1,N
1568801315.1,286047003.5,N
1568801335.9,286047007.6,N
1568801355.7,286047004.9,N
1568801375.6,286047007.0,N
1568801395.4,286047005.2,N
1568801415.2,286047007.5,N
1568801435.1,286047006.9,N
1568801436.0,286047006.9,N
1568801455.8,286047007.0,N
1568801475.6,286047006.5,N
1568801495.5,286047009.1,N
1568801515.3,286047009.1,N
1568801535.2,286047008.6,N
1568801555.9,286047010.5,N
1568801575.7,286047009.4,N
1568801595.6,286047010.1,N
1568801615.4,286047011.4,N
1568801635.3,286047015.1,N
1568801655.1,286047015.3,N
1568801656.0,286047015.3,N
1568801675.8,286047016.8,N
1568801695.7,286047014.1,N
1568801715.5,286047016.5,N
1568801735.3,286047016.1,N
1568801755.2,286047016.9,N
1568801775.0,286047017.1,N
1568801775.9,286047017.1,N
1568801795.8,286047011.1,N
1568801815.6,286047013.2,N
1568801835.4,286047012.9,N
1568801855.3,286047011.9,N
1568801875.1,286047010.2,N
1568801895.9,286047011.9,Y
1568801915.7,286047000.9,P
1568801935.5,286047001.2,N
1568801955.4,286046998.3,N
1568801975.2,286046999.5,N
1568801995.0,286047002.7,N
1568801995.9,286047002.7,N
1568802015.8,286047001.5,N
1568802035.6,286047001.7,N
1568802055.5,286047003.6,N
1568802075.3,286047006.0,N
1568802095.1,286047002.1,N
1568802115.9,286047001.3,N
1568802135.7,286047001.3,N
1568802155.5,286047006.0,N
1568802175.4,286047005.5,N
1568802195.2,286047007.8,N
1568802215.0,286047007.9,N
1568802216.0,286047007.9,N
1568802235.8,286047010.4,Y
1568802255.6,286047004.7,P
1568802275.5,286047003.4,P
1568802295.3,286047007.2,P
1568802315.1,286047004.7,Y
1568802335.9,286047000.6,P
1568802355.7,286046999.5,N
1568802375.6,286046995.2,N
1568802395.4,286046991.9,N
1568802415.2,286046992.4,N
1568802435.1,286046992.3,N
1568802436.0,286046992.3,N
1568802455.8,286046994.6,N
1568802475.6,286046994.8,N
1568802495.5,286046990.2,N
1568802515.3,286046992.9,N
1568802535.2,286046990.2,N
1568802555.9,286046992.1,N
1568802575.7,286046992.1,N
1568802595.6,286046996.4,N
1568802615.4,286046994.2,N
1568802635.2,286046992.2,N
1568802655.1,286046993.8,N
1568802656.0,286046993.8,N
1568802675.8,286046993.9,N
1568802695.7,286046995.2,N
1568802715.5,286046997.6,N
1568802735.3,286046999.3,N
1568802755.2,286046995.5,N
1568802775.0,286046996.5,N
1568802775.9,286046996.5,N
1568802795.7,286046998.7,N
1568802815.6,286047004.6,N
1568802835.4,286047007.6,N
1568802855.3,286047006.1,N
1568802875.1,286047008.4,N
1568802876.0,286047008.4,N
1568802895.8,286047005.3,N
1568802915.7,286047004.0,N
1568802935.5,286047002.6,N
1568802955.3,286046999.7,N
1568802975.2,286047001.2,N
1568802995.0,286046998.3,N
1568802995.9,286046998.3,N
1568803015.8,286047001.0,N
1568803035.6,286047002.7,N
1568803055.4,286047001.9,N
1568803075.3,286047001.7,N
1568803095.1,286046999.9,N
1568803115.9,286047001.0,N
1568803135.7,286046998.7,N
1568803155.5,286046999.1,N
1568803175.4,286046997.4,N
1568803195.2,286047000.0,N
1568803215.1,286047000.5,N
1568803216.0,286047000.5,N
1568803235.8,286047000.2,N
1568803255.6,286047000.4,N
1568803275.5,286047002.5,N
1568803295.3,286047003.8,N
1568803315.1,286047003.4,N
1568803335.9,286047005.5,N
1568803355.7,286047003.7,N
1568803375.6,286047002.0,N
1568803395.4,286047002.2,N
1568803415.2,286047000.5,N
1568803435.1,286047002.2,N
1568803436.0,286047002.2,N
1568803455.8,286047000.7,N
1568803475.7,286046999.6,N
1568803495.5,286046997.3,N
1568803515.3,286046995.1,N
1568803535.2,286046998.4,N
1568803555.0,286046999.5,N
1568803555.9,286047011.9,Y
1568803575.7,286047000.9,P
1568803595.6,286047002.4,P
1568803615.4,286047000.9,N
1568803635.3,286047002.1,Y
1568803655.1,286046999.4,P
1568803656.0,286046999.4,N
1568803675.8,286046998.2,N
1568803695.7,286046999.8,N
1568803715.5,286046999.0,N
1568803735.4,286046996.7,Y
1568803755.2,286046997.3,P
1568803775.0,286046999.4,N
1568803775.9,286046999.4,N
1568803795.8,286046997.8,N
1568803815.6,286046994.9,Y
1568803835.5,286046997.4,P
1568803855.3,286046999.6,N
1568803875.1,286047000.8,N
1568803895.9,286047001.1,N
1568803915.7,286046998.7,N
1568803935.5,286047000.7,N
1568803955.4,286046997.0,N
1568803975.2,286046996.9,N
1568803995.1,286046997.7,N
1568803996.0,286046997.7,N
1568804015.8,286046992.2,Y
1568804035.6,286046994.1,P
1568804055.5,286046992.6,P
1568804075.3,286046992.3,N
1568804095.1,286046993.9,N
1568804115.9,286046993.4,N
1568804135.7,286046995.6,N
1568804155.6,286046996.4,N
1568804175.4,286046995.0,N
1568804195.2,286046996.0,N
1568804215.1,286046994.8,N
1568804216.0,286046994.8,N
1568804235.8,286046992.3,Y
1568804255.7,286046996.6,P
1568804275.5,286046998.8,N
1568804295.3,286047001.0,N
1568804345.2,286047000.6,E
1568804355.1,286046998.2,N
1568804375.9,286046996.8,P
1568804395.7,286046998.1,N
